owner,sensor,date,latitude,longitude,vertical_datum,mass_concentration_of_oxygen_in_sea_water,qcFlag 
SCCF RECON,ioos:station:SCCF:11:1,2013-05-01T00:00:00Z,26.4679,-82.0631,1.965,7.82,1111122 
SCCF RECON,ioos:station:SCCF:11:1,2013-05-01T01:00:00Z,26.4679,-82.0631,1.841,7.35,1111122 
SCCF RECON,ioos:station:SCCF:11:1,2013-05-01T02:00:00Z,26.4679,-82.0631,1.72,6.87,1111122 
SCCF RECON,ioos:station:SCCF:11:1,2013-05-01T03:00:00Z,26.4679,-82.0631,1.613,6.22,1111122 
SCCF RECON,ioos:station:SCCF:11:1,2013-05-01T04:00:00Z,26.4679,-82.0631,1.5,5.98,1111122 
SCCF RECON,ioos:station:SCCF:11:1,2013-05-01T05:00:00Z,26.4679,-82.0631,1.47,5.66,1111122 
SCCF RECON,ioos:station:SCCF:11:1,2013-05-01T06:00:00Z,26.4679,-82.0631,1.5,5.32,1111122 
SCCF RECON,ioos:station:SCCF:11:1,2013-05-01T07:00:00Z,26.4679,-82.0631,1.624,5.45,1111122 
SCCF RECON,ioos:station:SCCF:11:1,2013-05-01T08:00:00Z,26.4679,-82.0631,1.76,5.42,1111122 
SCCF RECON,ioos:station:SCCF:11:1,2013-05-01T09:00:00Z,26.4679,-82.0631,1.88,5.3,1111122 
SCCF RECON,ioos:station:SCCF:11:1,2013-05-01T10:00:00Z,26.4679,-82.0631,1.95,5.27,1111122 
SCCF RECON,ioos:station:SCCF:11:1,2013-05-01T11:00:00Z,26.4679,-82.0631,2.0,5.42,1111122 
SCCF RECON,ioos:station:SCCF:11:1,2013-05-01T12:00:00Z,26.4679,-82.0631,2.04,5.24,1111122 
SCCF RECON,ioos:station:SCCF:11:1,2013-05-01T13:00:00Z,26.4679,-82.0631,1.99,5.31,1111122 
SCCF RECON,ioos:station:SCCF:11:1,2013-05-01T14:00:00Z,26.4679,-82.0631,1.915,5.44,1111122 
SCCF RECON,ioos:station:SCCF:11:1,2013-05-01T15:00:00Z,26.4679,-82.0631,1.879,5.45,1111122 
SCCF RECON,ioos:station:SCCF:11:1,2013-05-01T16:00:00Z,26.4679,-82.0631,1.92,5.51,1111122 
SCCF RECON,ioos:station:SCCF:11:1,2013-05-01T17:00:00Z,26.4679,-82.0631,1.987,5.57,1111122 
SCCF RECON,ioos:station:SCCF:11:1,2013-05-01T18:00:00Z,26.4679,-82.0631,2.03,5.5,1111122 
SCCF RECON,ioos:station:SCCF:11:1,2013-05-01T19:00:00Z,26.4679,-82.0631,1.995,5.65,1111122 
SCCF RECON,ioos:station:SCCF:11:1,2013-05-01T20:00:00Z,26.4679,-82.0631,2.04,5.65,1111122 
SCCF RECON,ioos:station:SCCF:11:1,2013-05-01T21:00:00Z,26.4679,-82.0631,2.086,6.18,1111122 
SCCF RECON,ioos:station:SCCF:11:1,2013-05-01T22:00:00Z,26.4679,-82.0631,2.158,6.08,1111122 
SCCF RECON,ioos:station:SCCF:11:1,2013-05-01T23:00:00Z,26.4679,-82.0631,2.229,5.92,1111122 
SCCF RECON,ioos:station:SCCF:11:1,2013-05-02T00:00:00Z,26.4679,-82.0631,2.231,5.62,1111122 
SCCF RECON,ioos:station:SCCF:11:1,2013-05-02T01:00:00Z,26.4679,-82.0631,2.03,5.65,1111122 
SCCF RECON,ioos:station:SCCF:11:1,2013-05-02T02:00:00Z,26.4679,-82.0631,1.89,5.27,1111122 
SCCF RECON,ioos:station:SCCF:11:1,2013-05-02T03:00:00Z,26.4679,-82.0631,1.768,5.06,1111122 
SCCF RECON,ioos:station:SCCF:11:1,2013-05-02T04:00:00Z,26.4679,-82.0631,1.625,4.67,1111122 
SCCF RECON,ioos:station:SCCF:11:1,2013-05-02T05:00:00Z,26.4679,-82.0631,1.548,4.51,1111122 
SCCF RECON,ioos:station:SCCF:11:1,2013-05-02T06:00:00Z,26.4679,-82.0631,1.49,4.42,1111122 
SCCF RECON,ioos:station:SCCF:11:1,2013-05-02T07:00:00Z,26.4679,-82.0631,1.54,4.32,1111122 
SCCF RECON,ioos:station:SCCF:11:1,2013-05-02T08:00:00Z,26.4679,-82.0631,1.67,4.47,1111122 
SCCF RECON,ioos:station:SCCF:11:1,2013-05-02T09:00:00Z,26.4679,-82.0631,1.79,4.35,1111122 
SCCF RECON,ioos:station:SCCF:11:1,2013-05-02T10:00:00Z,26.4679,-82.0631,1.907,4.34,1111122 
SCCF RECON,ioos:station:SCCF:11:1,2013-05-02T11:00:00Z,26.4679,-82.0631,1.979,4.36,1111122 
SCCF RECON,ioos:station:SCCF:11:1,2013-05-02T12:00:00Z,26.4679,-82.0631,2.02,4.83,1111122 
SCCF RECON,ioos:station:SCCF:11:1,2013-05-02T13:00:00Z,26.4679,-82.0631,2.01,4.76,1111122 
SCCF RECON,ioos:station:SCCF:11:1,2013-05-02T14:00:00Z,26.4679,-82.0631,1.94,4.87,1111122 
SCCF RECON,ioos:station:SCCF:11:1,2013-05-02T15:00:00Z,26.4679,-82.0631,1.87,4.61,1111122 
SCCF RECON,ioos:station:SCCF:11:1,2013-05-02T16:00:00Z,26.4679,-82.0631,1.79,4.7,1111122 
SCCF RECON,ioos:station:SCCF:11:1,2013-05-02T17:00:00Z,26.4679,-82.0631,1.778,4.32,1111122 
SCCF RECON,ioos:station:SCCF:11:1,2013-05-02T18:00:00Z,26.4679,-82.0631,1.79,4.23,1111122 
SCCF RECON,ioos:station:SCCF:11:1,2013-05-02T19:00:00Z,26.4679,-82.0631,1.71,4.45,1111122 
SCCF RECON,ioos:station:SCCF:11:1,2013-05-02T20:00:00Z,26.4679,-82.0631,1.78,4.52,1111122 
SCCF RECON,ioos:station:SCCF:11:1,2013-05-02T21:00:00Z,26.4679,-82.0631,1.89,5.83,1111122 
SCCF RECON,ioos:station:SCCF:11:1,2013-05-02T22:00:00Z,26.4679,-82.0631,1.97,5.73,1111122 
SCCF RECON,ioos:station:SCCF:11:1,2013-05-02T23:00:00Z,26.4679,-82.0631,2.041,6.17,1111122 
SCCF RECON,ioos:station:SCCF:11:1,2013-05-03T00:00:00Z,26.4679,-82.0631,2.0,6.08,1111122 
SCCF RECON,ioos:station:SCCF:11:1,2013-05-03T01:00:00Z,26.4679,-82.0631,1.958,5.63,1111122 
SCCF RECON,ioos:station:SCCF:11:1,2013-05-03T02:00:00Z,26.4679,-82.0631,1.91,5.23,1111122 
SCCF RECON,ioos:station:SCCF:11:1,2013-05-03T03:00:00Z,26.4679,-82.0631,1.77,4.92,1111122 
SCCF RECON,ioos:station:SCCF:11:1,2013-05-03T04:00:00Z,26.4679,-82.0631,1.68,4.51,1111122 
SCCF RECON,ioos:station:SCCF:11:1,2013-05-03T05:00:00Z,26.4679,-82.0631,1.6,4.45,1111122 
SCCF RECON,ioos:station:SCCF:11:1,2013-05-03T06:00:00Z,26.4679,-82.0631,1.0,-9999.0,1111122 
SCCF RECON,ioos:station:SCCF:11:1,2013-05-03T07:00:00Z,26.4679,-82.0631,1.0,-9999.0,1111122 
SCCF RECON,ioos:station:SCCF:11:1,2013-05-03T08:00:00Z,26.4679,-82.0631,1.0,-9999.0,1111122 
SCCF RECON,ioos:station:SCCF:11:1,2013-05-03T09:00:00Z,26.4679,-82.0631,1.0,-9999.0,1111122 
SCCF RECON,ioos:station:SCCF:11:1,2013-05-03T10:00:00Z,26.4679,-82.0631,1.0,-9999.0,1111122 
SCCF RECON,ioos:station:SCCF:11:1,2013-05-03T11:00:00Z,26.4679,-82.0631,1.0,-9999.0,1111122 
SCCF RECON,ioos:station:SCCF:11:1,2013-05-03T12:00:00Z,26.4679,-82.0631,1.0,-9999.0,1111122 
SCCF RECON,ioos:station:SCCF:11:1,2013-05-03T13:00:00Z,26.4679,-82.0631,1.0,-9999.0,1111122 
SCCF RECON,ioos:station:SCCF:11:1,2013-05-03T14:00:00Z,26.4679,-82.0631,1.0,-9999.0,1111122 
SCCF RECON,ioos:station:SCCF:11:1,2013-05-03T15:00:00Z,26.4679,-82.0631,1.0,-9999.0,1111122 
SCCF RECON,ioos:station:SCCF:11:1,2013-05-03T17:00:00Z,26.4679,-82.0631,1.84,6.12,1111122 
SCCF RECON,ioos:station:SCCF:11:1,2013-05-03T18:00:00Z,26.4679,-82.0631,1.77,6.13,1111122 
SCCF RECON,ioos:station:SCCF:11:1,2013-05-03T19:00:00Z,26.4679,-82.0631,1.717,8.0,1111122 
SCCF RECON,ioos:station:SCCF:11:1,2013-05-03T20:00:00Z,26.4679,-82.0631,1.69,8.31,1111122 
SCCF RECON,ioos:station:SCCF:11:1,2013-05-03T21:00:00Z,26.4679,-82.0631,1.74,8.35,1111122 
SCCF RECON,ioos:station:SCCF:11:1,2013-05-03T22:00:00Z,26.4679,-82.0631,1.82,7.99,1111122 
SCCF RECON,ioos:station:SCCF:11:1,2013-05-03T23:00:00Z,26.4679,-82.0631,1.89,7.3,1111122 
SCCF RECON,ioos:station:SCCF:11:1,2013-05-04T00:00:00Z,26.4679,-82.0631,1.93,7.76,1111122 
SCCF RECON,ioos:station:SCCF:11:1,2013-05-04T01:00:00Z,26.4679,-82.0631,1.969,7.55,1111122 
SCCF RECON,ioos:station:SCCF:11:1,2013-05-04T02:00:00Z,26.4679,-82.0631,1.94,7.17,1111122 
SCCF RECON,ioos:station:SCCF:11:1,2013-05-04T03:00:00Z,26.4679,-82.0631,1.86,7.37,1111122 
SCCF RECON,ioos:station:SCCF:11:1,2013-05-04T04:00:00Z,26.4679,-82.0631,1.77,7.13,1111122 
SCCF RECON,ioos:station:SCCF:11:1,2013-05-04T05:00:00Z,26.4679,-82.0631,1.69,6.79,1111122 
SCCF RECON,ioos:station:SCCF:11:1,2013-05-04T06:00:00Z,26.4679,-82.0631,1.59,6.29,1111122 
SCCF RECON,ioos:station:SCCF:11:1,2013-05-04T07:00:00Z,26.4679,-82.0631,1.5,5.78,1111122 
SCCF RECON,ioos:station:SCCF:11:1,2013-05-04T08:00:00Z,26.4679,-82.0631,1.46,5.65,1111122 
SCCF RECON,ioos:station:SCCF:11:1,2013-05-04T09:00:00Z,26.4679,-82.0631,1.49,5.28,1111122 
SCCF RECON,ioos:station:SCCF:11:1,2013-05-04T10:00:00Z,26.4679,-82.0631,1.595,5.24,1111122 
SCCF RECON,ioos:station:SCCF:11:1,2013-05-04T11:00:00Z,26.4679,-82.0631,1.74,5.44,1111122 
SCCF RECON,ioos:station:SCCF:11:1,2013-05-04T12:00:00Z,26.4679,-82.0631,1.84,5.65,1111122 
SCCF RECON,ioos:station:SCCF:11:1,2013-05-04T13:00:00Z,26.4679,-82.0631,1.91,5.97,1111122 
SCCF RECON,ioos:station:SCCF:11:1,2013-05-04T14:00:00Z,26.4679,-82.0631,1.961,6.09,1111122 
SCCF RECON,ioos:station:SCCF:11:1,2013-05-04T15:00:00Z,26.4679,-82.0631,1.969,6.22,1111122 
SCCF RECON,ioos:station:SCCF:11:1,2013-05-04T16:00:00Z,26.4679,-82.0631,1.93,6.42,1111122 
SCCF RECON,ioos:station:SCCF:11:1,2013-05-04T17:00:00Z,26.4679,-82.0631,1.838,6.62,1111122 
SCCF RECON,ioos:station:SCCF:11:1,2013-05-04T18:00:00Z,26.4679,-82.0631,1.739,7.08,1111122 
SCCF RECON,ioos:station:SCCF:11:1,2013-05-04T19:00:00Z,26.4679,-82.0631,1.662,7.32,1111122 
SCCF RECON,ioos:station:SCCF:11:1,2013-05-04T20:00:00Z,26.4679,-82.0631,1.589,7.4,1111122 
SCCF RECON,ioos:station:SCCF:11:1,2013-05-04T21:00:00Z,26.4679,-82.0631,1.56,7.64,1111122 
SCCF RECON,ioos:station:SCCF:11:1,2013-05-04T22:00:00Z,26.4679,-82.0631,1.581,7.64,1111122 
SCCF RECON,ioos:station:SCCF:11:1,2013-05-04T23:00:00Z,26.4679,-82.0631,1.653,7.41,1111122 
SCCF RECON,ioos:station:SCCF:11:1,2013-05-05T00:00:00Z,26.4679,-82.0631,1.76,7.05,1111122 
SCCF RECON,ioos:station:SCCF:11:1,2013-05-05T01:00:00Z,26.4679,-82.0631,1.87,6.68,1111122 
SCCF RECON,ioos:station:SCCF:11:1,2013-05-05T02:00:00Z,26.4679,-82.0631,1.946,6.46,1111122 
SCCF RECON,ioos:station:SCCF:11:1,2013-05-05T03:00:00Z,26.4679,-82.0631,1.933,6.27,1111122 
SCCF RECON,ioos:station:SCCF:11:1,2013-05-05T04:00:00Z,26.4679,-82.0631,1.88,6.35,1111122 
SCCF RECON,ioos:station:SCCF:11:1,2013-05-05T05:00:00Z,26.4679,-82.0631,1.78,6.13,1111122 
SCCF RECON,ioos:station:SCCF:11:1,2013-05-05T06:00:00Z,26.4679,-82.0631,1.71,5.99,1111122 
SCCF RECON,ioos:station:SCCF:11:1,2013-05-05T07:00:00Z,26.4679,-82.0631,1.65,5.82,1111122 
SCCF RECON,ioos:station:SCCF:11:1,2013-05-05T08:00:00Z,26.4679,-82.0631,1.58,5.72,1111122 
SCCF RECON,ioos:station:SCCF:11:1,2013-05-05T09:00:00Z,26.4679,-82.0631,1.55,5.56,1111122 
SCCF RECON,ioos:station:SCCF:11:1,2013-05-05T10:00:00Z,26.4679,-82.0631,1.594,5.8,1111122 
SCCF RECON,ioos:station:SCCF:11:1,2013-05-05T11:00:00Z,26.4679,-82.0631,1.69,5.85,1111122 
SCCF RECON,ioos:station:SCCF:11:1,2013-05-05T12:00:00Z,26.4679,-82.0631,1.8,5.89,1111122 
SCCF RECON,ioos:station:SCCF:11:1,2013-05-05T13:00:00Z,26.4679,-82.0631,1.92,6.04,1111122 
SCCF RECON,ioos:station:SCCF:11:1,2013-05-05T14:00:00Z,26.4679,-82.0631,1.977,6.14,1111122 
SCCF RECON,ioos:station:SCCF:11:1,2013-05-05T15:00:00Z,26.4679,-82.0631,1.964,6.43,1111122 
SCCF RECON,ioos:station:SCCF:11:1,2013-05-05T16:00:00Z,26.4679,-82.0631,1.905,6.4,1111122 
SCCF RECON,ioos:station:SCCF:11:1,2013-05-05T17:00:00Z,26.4679,-82.0631,1.801,6.93,1111122 
SCCF RECON,ioos:station:SCCF:11:1,2013-05-05T18:00:00Z,26.4679,-82.0631,1.698,7.48,1111122 
SCCF RECON,ioos:station:SCCF:11:1,2013-05-05T19:00:00Z,26.4679,-82.0631,1.59,7.68,1111122 
SCCF RECON,ioos:station:SCCF:11:1,2013-05-05T20:00:00Z,26.4679,-82.0631,1.48,8.07,1111122 
SCCF RECON,ioos:station:SCCF:11:1,2013-05-05T21:00:00Z,26.4679,-82.0631,1.39,8.21,1111122 
SCCF RECON,ioos:station:SCCF:11:1,2013-05-05T22:00:00Z,26.4679,-82.0631,1.373,8.29,1111122 
SCCF RECON,ioos:station:SCCF:11:1,2013-05-05T23:00:00Z,26.4679,-82.0631,1.426,8.38,1111122 
SCCF RECON,ioos:station:SCCF:11:1,2013-05-06T00:00:00Z,26.4679,-82.0631,1.55,7.57,1111122 
SCCF RECON,ioos:station:SCCF:11:1,2013-05-06T01:00:00Z,26.4679,-82.0631,1.67,7.23,1111122 
SCCF RECON,ioos:station:SCCF:11:1,2013-05-06T02:00:00Z,26.4679,-82.0631,1.755,6.79,1111122 
SCCF RECON,ioos:station:SCCF:11:1,2013-05-06T03:00:00Z,26.4679,-82.0631,1.85,6.72,1111122 
SCCF RECON,ioos:station:SCCF:11:1,2013-05-06T04:00:00Z,26.4679,-82.0631,1.91,7.29,1111122 
SCCF RECON,ioos:station:SCCF:11:1,2013-05-06T05:00:00Z,26.4679,-82.0631,1.9,7.0,1111122 
SCCF RECON,ioos:station:SCCF:11:1,2013-05-06T06:00:00Z,26.4679,-82.0631,1.806,6.42,1111122 
SCCF RECON,ioos:station:SCCF:11:1,2013-05-06T07:00:00Z,26.4679,-82.0631,1.7,5.9,1111122 
SCCF RECON,ioos:station:SCCF:11:1,2013-05-06T08:00:00Z,26.4679,-82.0631,1.63,5.82,1111122 
SCCF RECON,ioos:station:SCCF:11:1,2013-05-06T09:00:00Z,26.4679,-82.0631,1.59,5.77,1111122 
SCCF RECON,ioos:station:SCCF:11:1,2013-05-06T10:00:00Z,26.4679,-82.0631,1.6,5.59,1111122 
SCCF RECON,ioos:station:SCCF:11:1,2013-05-06T11:00:00Z,26.4679,-82.0631,1.708,5.26,1111122 
SCCF RECON,ioos:station:SCCF:11:1,2013-05-06T12:00:00Z,26.4679,-82.0631,1.83,5.3,1111122 
SCCF RECON,ioos:station:SCCF:11:1,2013-05-06T13:00:00Z,26.4679,-82.0631,1.94,5.45,1111122 
SCCF RECON,ioos:station:SCCF:11:1,2013-05-06T14:00:00Z,26.4679,-82.0631,2.01,5.75,1111122 
SCCF RECON,ioos:station:SCCF:11:1,2013-05-06T15:00:00Z,26.4679,-82.0631,2.08,6.14,1111122 
SCCF RECON,ioos:station:SCCF:11:1,2013-05-06T16:00:00Z,26.4679,-82.0631,2.083,6.11,1111122 
SCCF RECON,ioos:station:SCCF:11:1,2013-05-06T17:00:00Z,26.4679,-82.0631,1.999,6.09,1111122 
SCCF RECON,ioos:station:SCCF:11:1,2013-05-06T18:00:00Z,26.4679,-82.0631,1.85,6.76,1111122 
SCCF RECON,ioos:station:SCCF:11:1,2013-05-06T19:00:00Z,26.4679,-82.0631,1.706,6.87,1111122 
SCCF RECON,ioos:station:SCCF:11:1,2013-05-06T20:00:00Z,26.4679,-82.0631,1.59,7.16,1111122 
SCCF RECON,ioos:station:SCCF:11:1,2013-05-06T21:00:00Z,26.4679,-82.0631,1.47,7.48,1111122 
SCCF RECON,ioos:station:SCCF:11:1,2013-05-06T22:00:00Z,26.4679,-82.0631,1.39,7.65,1111122 
SCCF RECON,ioos:station:SCCF:11:1,2013-05-06T23:00:00Z,26.4679,-82.0631,1.39,7.75,1111122 
SCCF RECON,ioos:station:SCCF:11:1,2013-05-07T00:00:00Z,26.4679,-82.0631,1.49,7.46,1111122 
SCCF RECON,ioos:station:SCCF:11:1,2013-05-07T01:00:00Z,26.4679,-82.0631,1.64,7.53,1111122 
SCCF RECON,ioos:station:SCCF:11:1,2013-05-07T02:00:00Z,26.4679,-82.0631,1.76,7.28,1111122 
SCCF RECON,ioos:station:SCCF:11:1,2013-05-07T03:00:00Z,26.4679,-82.0631,1.85,7.05,1111122 
SCCF RECON,ioos:station:SCCF:11:1,2013-05-07T04:00:00Z,26.4679,-82.0631,1.93,6.82,1111122 
SCCF RECON,ioos:station:SCCF:11:1,2013-05-07T05:00:00Z,26.4679,-82.0631,1.95,7.0,1111122 
SCCF RECON,ioos:station:SCCF:11:1,2013-05-07T06:00:00Z,26.4679,-82.0631,1.9,6.73,1111122 
SCCF RECON,ioos:station:SCCF:11:1,2013-05-07T07:00:00Z,26.4679,-82.0631,1.81,6.59,1111122 
SCCF RECON,ioos:station:SCCF:11:1,2013-05-07T08:00:00Z,26.4679,-82.0631,1.72,6.4,1111122 
SCCF RECON,ioos:station:SCCF:11:1,2013-05-07T09:00:00Z,26.4679,-82.0631,1.65,6.05,1111122 
SCCF RECON,ioos:station:SCCF:11:1,2013-05-07T10:00:00Z,26.4679,-82.0631,1.61,5.89,1111122 
SCCF RECON,ioos:station:SCCF:11:1,2013-05-07T11:00:00Z,26.4679,-82.0631,1.65,5.8,1111122 
SCCF RECON,ioos:station:SCCF:11:1,2013-05-07T12:00:00Z,26.4679,-82.0631,1.76,5.65,1111122 
SCCF RECON,ioos:station:SCCF:11:1,2013-05-07T13:00:00Z,26.4679,-82.0631,1.899,6.15,1111122 
SCCF RECON,ioos:station:SCCF:11:1,2013-05-07T14:00:00Z,26.4679,-82.0631,2.01,6.77,1111122 
SCCF RECON,ioos:station:SCCF:11:1,2013-05-07T15:00:00Z,26.4679,-82.0631,2.08,6.73,1111122 
SCCF RECON,ioos:station:SCCF:11:1,2013-05-07T16:00:00Z,26.4679,-82.0631,2.128,6.53,1111122 
SCCF RECON,ioos:station:SCCF:11:1,2013-05-07T17:00:00Z,26.4679,-82.0631,2.1,6.83,1111122 
SCCF RECON,ioos:station:SCCF:11:1,2013-05-07T18:00:00Z,26.4679,-82.0631,1.97,6.84,1111122 
SCCF RECON,ioos:station:SCCF:11:1,2013-05-07T19:00:00Z,26.4679,-82.0631,1.811,7.42,1111122 
SCCF RECON,ioos:station:SCCF:11:1,2013-05-07T20:00:00Z,26.4679,-82.0631,1.684,7.51,1111122 
SCCF RECON,ioos:station:SCCF:11:1,2013-05-07T21:00:00Z,26.4679,-82.0631,1.56,7.79,1111122 
SCCF RECON,ioos:station:SCCF:11:1,2013-05-07T22:00:00Z,26.4679,-82.0631,1.467,7.82,1111122 
SCCF RECON,ioos:station:SCCF:11:1,2013-05-07T23:00:00Z,26.4679,-82.0631,1.403,7.77,1111122 
SCCF RECON,ioos:station:SCCF:11:1,2013-05-08T00:00:00Z,26.4679,-82.0631,1.43,7.51,1111122 
SCCF RECON,ioos:station:SCCF:11:1,2013-05-08T01:00:00Z,26.4679,-82.0631,1.57,7.34,1111122 
SCCF RECON,ioos:station:SCCF:11:1,2013-05-08T02:00:00Z,26.4679,-82.0631,1.72,7.4,1111122 
SCCF RECON,ioos:station:SCCF:11:1,2013-05-08T03:00:00Z,26.4679,-82.0631,1.84,7.27,1111122 
SCCF RECON,ioos:station:SCCF:11:1,2013-05-08T04:00:00Z,26.4679,-82.0631,1.94,7.17,1111122 
SCCF RECON,ioos:station:SCCF:11:1,2013-05-08T05:00:00Z,26.4679,-82.0631,2.0,6.9,1111122 
SCCF RECON,ioos:station:SCCF:11:1,2013-05-08T06:00:00Z,26.4679,-82.0631,2.0,7.02,1111122 
SCCF RECON,ioos:station:SCCF:11:1,2013-05-08T07:00:00Z,26.4679,-82.0631,1.92,6.93,1111122 
SCCF RECON,ioos:station:SCCF:11:1,2013-05-08T08:00:00Z,26.4679,-82.0631,1.82,6.54,1111122 
SCCF RECON,ioos:station:SCCF:11:1,2013-05-08T09:00:00Z,26.4679,-82.0631,1.74,6.01,1111122 
SCCF RECON,ioos:station:SCCF:11:1,2013-05-08T10:00:00Z,26.4679,-82.0631,1.68,5.88,1111122 
SCCF RECON,ioos:station:SCCF:11:1,2013-05-08T11:00:00Z,26.4679,-82.0631,1.68,5.68,1111122 
SCCF RECON,ioos:station:SCCF:11:1,2013-05-08T12:00:00Z,26.4679,-82.0631,1.75,5.74,1111122 
SCCF RECON,ioos:station:SCCF:11:1,2013-05-08T13:00:00Z,26.4679,-82.0631,1.88,6.43,1111122 
SCCF RECON,ioos:station:SCCF:11:1,2013-05-08T14:00:00Z,26.4679,-82.0631,2.01,6.84,1111122 
SCCF RECON,ioos:station:SCCF:11:1,2013-05-08T15:00:00Z,26.4679,-82.0631,2.093,6.67,1111122 
SCCF RECON,ioos:station:SCCF:11:1,2013-05-08T16:00:00Z,26.4679,-82.0631,2.14,6.61,1111122 
SCCF RECON,ioos:station:SCCF:11:1,2013-05-08T17:00:00Z,26.4679,-82.0631,2.14,6.86,1111122 
SCCF RECON,ioos:station:SCCF:11:1,2013-05-08T18:00:00Z,26.4679,-82.0631,2.051,6.95,1111122 
SCCF RECON,ioos:station:SCCF:11:1,2013-05-08T19:00:00Z,26.4679,-82.0631,1.9,7.7,1111122 
SCCF RECON,ioos:station:SCCF:11:1,2013-05-08T20:00:00Z,26.4679,-82.0631,1.756,7.89,1111122 
SCCF RECON,ioos:station:SCCF:11:1,2013-05-08T21:00:00Z,26.4679,-82.0631,1.625,8.03,1111122 
SCCF RECON,ioos:station:SCCF:11:1,2013-05-08T22:00:00Z,26.4679,-82.0631,1.49,8.05,1111122 
SCCF RECON,ioos:station:SCCF:11:1,2013-05-08T23:00:00Z,26.4679,-82.0631,1.38,7.98,1111122 
SCCF RECON,ioos:station:SCCF:11:1,2013-05-09T00:00:00Z,26.4679,-82.0631,1.316,7.85,1111122 
SCCF RECON,ioos:station:SCCF:11:1,2013-05-09T01:00:00Z,26.4679,-82.0631,1.39,7.79,1111122 
SCCF RECON,ioos:station:SCCF:11:1,2013-05-09T02:00:00Z,26.4679,-82.0631,1.55,7.32,1111122 
SCCF RECON,ioos:station:SCCF:11:1,2013-05-09T03:00:00Z,26.4679,-82.0631,1.698,7.41,1111122 
SCCF RECON,ioos:station:SCCF:11:1,2013-05-09T04:00:00Z,26.4679,-82.0631,1.8,7.26,1111122 
SCCF RECON,ioos:station:SCCF:11:1,2013-05-09T05:00:00Z,26.4679,-82.0631,1.89,7.1,1111122 
SCCF RECON,ioos:station:SCCF:11:1,2013-05-09T06:00:00Z,26.4679,-82.0631,1.92,7.01,1111122 
SCCF RECON,ioos:station:SCCF:11:1,2013-05-09T07:00:00Z,26.4679,-82.0631,1.865,6.58,1111122 
SCCF RECON,ioos:station:SCCF:11:1,2013-05-09T08:00:00Z,26.4679,-82.0631,1.76,6.66,1111122 
SCCF RECON,ioos:station:SCCF:11:1,2013-05-09T09:00:00Z,26.4679,-82.0631,1.69,6.01,1111122 
SCCF RECON,ioos:station:SCCF:11:1,2013-05-09T10:00:00Z,26.4679,-82.0631,1.63,5.76,1111122 
SCCF RECON,ioos:station:SCCF:11:1,2013-05-09T11:00:00Z,26.4679,-82.0631,1.592,5.59,1111122 
SCCF RECON,ioos:station:SCCF:11:1,2013-05-09T12:00:00Z,26.4679,-82.0631,1.62,5.31,1111122 
SCCF RECON,ioos:station:SCCF:11:1,2013-05-09T13:00:00Z,26.4679,-82.0631,1.718,5.63,1111122 
SCCF RECON,ioos:station:SCCF:11:1,2013-05-09T14:00:00Z,26.4679,-82.0631,1.86,6.83,1111122 
SCCF RECON,ioos:station:SCCF:11:1,2013-05-09T15:00:00Z,26.4679,-82.0631,1.99,7.22,1111122 
SCCF RECON,ioos:station:SCCF:11:1,2013-05-09T16:00:00Z,26.4679,-82.0631,2.08,6.99,1111122 
SCCF RECON,ioos:station:SCCF:11:1,2013-05-09T17:00:00Z,26.4679,-82.0631,2.13,7.05,1111122 
SCCF RECON,ioos:station:SCCF:11:1,2013-05-09T18:00:00Z,26.4679,-82.0631,2.1,7.36,1111122 
SCCF RECON,ioos:station:SCCF:11:1,2013-05-09T19:00:00Z,26.4679,-82.0631,1.97,7.8,1111122 
SCCF RECON,ioos:station:SCCF:11:1,2013-05-09T20:00:00Z,26.4679,-82.0631,1.819,8.05,1111122 
SCCF RECON,ioos:station:SCCF:11:1,2013-05-09T21:00:00Z,26.4679,-82.0631,1.69,8.12,1111122 
SCCF RECON,ioos:station:SCCF:11:1,2013-05-09T22:00:00Z,26.4679,-82.0631,1.58,8.15,1111122 
SCCF RECON,ioos:station:SCCF:11:1,2013-05-09T23:00:00Z,26.4679,-82.0631,1.46,8.07,1111122 
SCCF RECON,ioos:station:SCCF:11:1,2013-05-10T00:00:00Z,26.4679,-82.0631,1.38,7.79,1111122 
SCCF RECON,ioos:station:SCCF:11:1,2013-05-10T01:00:00Z,26.4679,-82.0631,1.392,8.9,1111122 
SCCF RECON,ioos:station:SCCF:11:1,2013-05-10T02:00:00Z,26.4679,-82.0631,1.53,7.38,1111122 
SCCF RECON,ioos:station:SCCF:11:1,2013-05-10T03:00:00Z,26.4679,-82.0631,1.7,7.73,1111122 
SCCF RECON,ioos:station:SCCF:11:1,2013-05-10T04:00:00Z,26.4679,-82.0631,1.85,7.45,1111122 
SCCF RECON,ioos:station:SCCF:11:1,2013-05-10T05:00:00Z,26.4679,-82.0631,1.95,7.34,1111122 
SCCF RECON,ioos:station:SCCF:11:1,2013-05-10T06:00:00Z,26.4679,-82.0631,2.03,7.24,1111122 
SCCF RECON,ioos:station:SCCF:11:1,2013-05-10T07:00:00Z,26.4679,-82.0631,2.03,7.12,1111122 
SCCF RECON,ioos:station:SCCF:11:1,2013-05-10T08:00:00Z,26.4679,-82.0631,1.96,6.99,1111122 
SCCF RECON,ioos:station:SCCF:11:1,2013-05-10T09:00:00Z,26.4679,-82.0631,1.86,6.91,1111122 
SCCF RECON,ioos:station:SCCF:11:1,2013-05-10T10:00:00Z,26.4679,-82.0631,1.79,6.29,1111122 
SCCF RECON,ioos:station:SCCF:11:1,2013-05-10T11:00:00Z,26.4679,-82.0631,1.75,5.72,1111122 
SCCF RECON,ioos:station:SCCF:11:1,2013-05-10T12:00:00Z,26.4679,-82.0631,1.71,5.63,1111122 
SCCF RECON,ioos:station:SCCF:11:1,2013-05-10T13:00:00Z,26.4679,-82.0631,1.761,5.72,1111122 
SCCF RECON,ioos:station:SCCF:11:1,2013-05-10T14:00:00Z,26.4679,-82.0631,1.9,6.07,1111122 
SCCF RECON,ioos:station:SCCF:11:1,2013-05-10T15:00:00Z,26.4679,-82.0631,2.039,7.38,1111122 
SCCF RECON,ioos:station:SCCF:11:1,2013-05-10T16:00:00Z,26.4679,-82.0631,2.13,7.44,1111122 
SCCF RECON,ioos:station:SCCF:11:1,2013-05-10T17:00:00Z,26.4679,-82.0631,2.16,7.38,1111122 
SCCF RECON,ioos:station:SCCF:11:1,2013-05-10T18:00:00Z,26.4679,-82.0631,2.19,7.43,1111122 
SCCF RECON,ioos:station:SCCF:11:1,2013-05-10T19:00:00Z,26.4679,-82.0631,2.13,7.38,1111122 
SCCF RECON,ioos:station:SCCF:11:1,2013-05-10T20:00:00Z,26.4679,-82.0631,1.98,8.03,1111122 
SCCF RECON,ioos:station:SCCF:11:1,2013-05-10T21:00:00Z,26.4679,-82.0631,1.8,8.11,1111122 
SCCF RECON,ioos:station:SCCF:11:1,2013-05-10T22:00:00Z,26.4679,-82.0631,1.656,8.04,1111122 
SCCF RECON,ioos:station:SCCF:11:1,2013-05-10T23:00:00Z,26.4679,-82.0631,1.538,8.05,1111122 
SCCF RECON,ioos:station:SCCF:11:1,2013-05-11T00:00:00Z,26.4679,-82.0631,1.421,7.77,1111122 
SCCF RECON,ioos:station:SCCF:11:1,2013-05-11T01:00:00Z,26.4679,-82.0631,1.36,7.51,1111122 
SCCF RECON,ioos:station:SCCF:11:1,2013-05-11T02:00:00Z,26.4679,-82.0631,1.41,7.28,1111122 
SCCF RECON,ioos:station:SCCF:11:1,2013-05-11T03:00:00Z,26.4679,-82.0631,1.58,7.13,1111122 
SCCF RECON,ioos:station:SCCF:11:1,2013-05-11T04:00:00Z,26.4679,-82.0631,1.74,7.27,1111122 
SCCF RECON,ioos:station:SCCF:11:1,2013-05-11T05:00:00Z,26.4679,-82.0631,1.85,6.44,1111122 
SCCF RECON,ioos:station:SCCF:11:1,2013-05-11T06:00:00Z,26.4679,-82.0631,1.95,6.01,1111122 
SCCF RECON,ioos:station:SCCF:11:1,2013-05-11T07:00:00Z,26.4679,-82.0631,2.0,6.32,1111122 
SCCF RECON,ioos:station:SCCF:11:1,2013-05-11T08:00:00Z,26.4679,-82.0631,1.98,6.52,1111122 
SCCF RECON,ioos:station:SCCF:11:1,2013-05-11T09:00:00Z,26.4679,-82.0631,1.94,6.48,1111122 
SCCF RECON,ioos:station:SCCF:11:1,2013-05-11T10:00:00Z,26.4679,-82.0631,1.89,6.34,1111122 
SCCF RECON,ioos:station:SCCF:11:1,2013-05-11T11:00:00Z,26.4679,-82.0631,1.82,6.24,1111122 
SCCF RECON,ioos:station:SCCF:11:1,2013-05-11T12:00:00Z,26.4679,-82.0631,1.801,5.65,1111122 
SCCF RECON,ioos:station:SCCF:11:1,2013-05-11T13:00:00Z,26.4679,-82.0631,1.818,5.66,1111122 
SCCF RECON,ioos:station:SCCF:11:1,2013-05-11T14:00:00Z,26.4679,-82.0631,1.89,5.68,1111122 
SCCF RECON,ioos:station:SCCF:11:1,2013-05-11T15:00:00Z,26.4679,-82.0631,2.04,6.5,1111122 
SCCF RECON,ioos:station:SCCF:11:1,2013-05-11T16:00:00Z,26.4679,-82.0631,2.15,6.56,1111122 
SCCF RECON,ioos:station:SCCF:11:1,2013-05-11T17:00:00Z,26.4679,-82.0631,2.204,6.91,1111122 
SCCF RECON,ioos:station:SCCF:11:1,2013-05-11T18:00:00Z,26.4679,-82.0631,2.2,6.79,1111122 
SCCF RECON,ioos:station:SCCF:11:1,2013-05-11T19:00:00Z,26.4679,-82.0631,2.16,6.86,1111122 
SCCF RECON,ioos:station:SCCF:11:1,2013-05-11T20:00:00Z,26.4679,-82.0631,2.078,8.14,1111122 
SCCF RECON,ioos:station:SCCF:11:1,2013-05-11T21:00:00Z,26.4679,-82.0631,1.952,8.45,1111122 
SCCF RECON,ioos:station:SCCF:11:1,2013-05-11T22:00:00Z,26.4679,-82.0631,1.81,7.9,1111122 